Regional Weather Roundup
Issued by NWS

Home | Current Version | Previous Version | Text Only | Print | Product List | Glossary Off
Versions: 1 2 3 4 5 6 7 8 9 10 11 12 13 14 15 16 17 18 19 20 21 22 23 24 25 26 27 28 29 30 31 32 33 34 35 36 37 38 39 40 41 42 43 44 45 46 47 48 49 50

000
ASUS43 KLOT 270608
RWRIL

ILLINOIS REGIONAL WEATHER ROUNDUP
NATIONAL WEATHER SERVICE CHICAGO/ROMEOVILLE IL
100 AM CDT FRI MAY 27 2016

NOTE: "FAIR" INDICATES FEW OR NO CLOUDS BELOW 12,000 FEET WITH NO
SIGNIFICANT WEATHER AND/OR OBSTRUCTIONS TO VISIBILITY.

* THESE STATIONS ARE NOT UNDER NWS QUALITY CONTROL. THEY ALSO MAY NOT
  REPORT WEATHER SUCH AS PRECIPITATION OR FOG.

ILZ001-002-007-009-015-016-024-270700-
NORTHWEST ILLINOIS

CITY           SKY/WX    TMP DP  RH WIND       PRES   REMARKS
MOLINE         CLOUDY    72  62  71 W5        29.85S
6HR MIN TEMP:  72; 6HR MAX TEMP:  83;

STERLING*      MOCLDY    74  65  73 S5        29.86F
SAVANNA*       CLOUDY    69  63  80 W7        29.84F
$$

ILZ003-004-008-010-011-017-018-270700-
NORTH CENTRAL ILLINOIS

CITY           SKY/WX    TMP DP  RH WIND       PRES   REMARKS
ROCKFORD       CLOUDY    70  64  81 CALM      29.88F
6HR MIN TEMP:  70; 6HR MAX TEMP:  82;

FREEPORT*      CLOUDY    67  62  84 CALM      29.87F
ROCHELLE*      CLOUDY    70  66  88 S6        29.87F
DE KALB*       CLOUDY    70  66  87 S7        29.89S
$$

ILZ005-006-012>014-019>023-270700-
NORTHEAST ILLINOIS

CITY           SKY/WX    TMP DP  RH WIND       PRES   REMARKS
CHICAGO-OHARE  CLOUDY    74  67  78 SW9       29.88R
6HR MIN TEMP:  72; 6HR MAX TEMP:  81;

CHICAGO-MIDWAY CLOUDY    74  66  76 S12       29.88F
6HR MIN TEMP:  74; 6HR MAX TEMP:  84;

AURORA         MOCLDY    72  67  84 S6        29.88F
6HR MIN TEMP:  72; 6HR MAX TEMP:  82;

LANSING*       MOCLDY    69  64  84 S8        29.91S
JOLIET*        CLOUDY    73  68  85 S3        29.90S
WAUKEGAN       MOCLDY    65  61  87 CALM      29.86F
6HR MIN TEMP:  64; 6HR MAX TEMP:  80;

DUPAGE AIRPORT CLOUDY    72  65  78 S5        29.88S
6HR MIN TEMP:  70; 6HR MAX TEMP:  81;

KANKAKEE*      CLOUDY    67  64  89 S8        29.92S
WHEELING       CLOUDY    74  66  76 S9        29.88S
6HR MIN TEMP:  70; 6HR MAX TEMP:  82;

MORRIS*        CLOUDY    73  67  81 S7        29.88S
ROMEOVILLE*    MOCLDY    71  65  82 S9        29.89S
NORTHERLY ISL    N/A     74  65  73 S13         N/A
NORTHERLY ISL    N/A     74  65  73 S13         N/A
$$

LMZ740>746-270700-
SOUTHERN LAKE MICHIGAN

STATION/POSITION SKY/WX   TEMP    WIND        PRES    VSBY  WAVE
                          AIR SEA DIR/SP/G                  HT/PER
                          (F)     (DEG/KT/KT) (MB)    (MI)  (FT/S)
SOUTHERN BUOY              58 50  150/ 10/ 10 1011.5S         0
WILMETTE HARBOR            64 58  190/  8/ 10   N/A           1
HARRISON CRIB              73     200/ 19/ 20   N/A
BURNHAM HARBOR             73     220/  8/ 16   N/A
CALUMET HARBOR             74     180/ 11/ 14 1011.9F
BURNS HARBOR               72     190/ 17/ 20 1012.9F
MICHIGAN CITY              72     170/ 12/ 16   N/A
MICHIGAN CITY 6N           66 59  210/  8/ 12   N/A           1
ST. JOSEPH                 65 62  180/  8/ 10   N/A           1
$$

ILZ025>027-034>036-040-047-049-050-058-095>099-270700-
WEST-CENTRAL ILLINOIS

CITY           SKY/WX    TMP DP  RH WIND       PRES   REMARKS
QUINCY         RAIN      64  62  93 CALM      29.95R FOG
GALESBURG*     CLOUDY    68  60  74 SW3       29.89R
MACOMB*        LGT RAIN  70  63  79 W13       29.92R
JACKSONVILLE*  RAIN      70  67  90 SW20G25   29.91S
PITTSFIELD*    RAIN      67  65  92 W7G16     29.94R
$$

ILZ028>032-037-038-041>044-048-051>054-059>061-270700-
CENTRAL ILLINOIS

CITY           SKY/WX    TMP DP  RH WIND       PRES   REMARKS
PONTIAC        CLOUDY    70  67  89 S14       29.92R
BLOOMINGTON    CLOUDY    69  67  93 S14       29.94R
DECATUR        CLOUDY    69  62  78 S10       29.93S
PEORIA         CLOUDY    71  65  81 S10       29.89R
6HR MIN TEMP:  71; 6HR MAX TEMP:  81;

LACON*         CLOUDY    71  66  84 S7        29.88R
LINCOLN*       CLOUDY    69  67  91 S6        29.92S
SPRINGFIELD    CLOUDY    71  65  81 S10       29.92R
6HR MIN TEMP:  71; 6HR MAX TEMP:  79;

TAYLORVILLE    CLOUDY    68  64  86 S10       29.93S
6HR MIN TEMP:  68; 6HR MAX TEMP:  74;

$$

ILZ033-039-045-046-055>057-062-063-270700-
EAST-CENTRAL ILLINOIS

CITY           SKY/WX    TMP DP  RH WIND       PRES   REMARKS
CHAMPAIGN      CLOUDY    67  63  87 S9        29.95R
RANTOUL*       CLOUDY    68  66  93 S7        29.96R
MATTOON        CLOUDY    67  61  81 S8        29.93S
$$

ILZ079-100>102-270700-
SOUTHWEST ILLINOIS

CITY           SKY/WX    TMP DP  RH WIND       PRES   REMARKS
ALTON          CLOUDY    68  64  86 SE5       29.93S
BELLEVILLE     CLOUDY    68  68  99 E8        29.91S
CAHOKIA*       LGT RAIN  71  64  78 VRB6      29.92R
SPARTA*        CLOUDY    67  64  91 S20G29    29.93F
$$

ILZ064>066-069>071-074>076-080>082-084>086-088>090-092>094-270700-
SOUTH-CENTRAL ILLINOIS

CITY           SKY/WX    TMP DP  RH WIND       PRES   REMARKS
CARBONDALE     LGT RAIN  68  63  84 SW16      29.93F
6HR MIN TEMP:  67; 6HR MAX TEMP:  73; 6HR PCP:  0.01;

CAIRO*         LGT RAIN  67  64  89 SW7       29.97F
EFFINGHAM*     MOCLDY    66  65  95 S3        29.96S
MARION         CLOUDY    70  64  83 SW5       29.95S
MT. VERNON     CLOUDY    64  61  88 S3        29.95F
CENTRALIA*     CLOUDY    67  65  94 S3        29.94S
SALEM*         CLOUDY    68  64  85 S5        29.95R
METROPOLIS*    LGT RAIN  67  67  98 W3        29.97F
$$

ILZ067-068-072-073-078-083-087-091-270700-
SOUTHEAST ILLINOIS

CITY           SKY/WX    TMP DP  RH WIND       PRES   REMARKS
LAWRENCEVILLE  CLOUDY    67  65  93 SE6       29.97S
FLORA*         CLOUDY    65  64  93 CALM      29.95S
FAIRFIELD*     CLOUDY    66  64  92 CALM      29.94S
HARRISBURG*    CLOUDY    67  65  93 CALM      29.95F
ROBINSON*      CLOUDY    64  63  94 SE3       29.97S
CARMI*         CLOUDY    64  64  99 CALM      29.95F
$$

ABBREVIATIONS USED IN REMARKS
   TC - TEMPERATURE IN CELSIUS
  WCI - WIND CHILL INDEX
   HX - HEAT INDEX
  VSB - VISIBILITY
$$





USA.gov is the U.S. government's official web portal to all federal, state and local government web resources and services.